Location: Lafig�re
(44.4503°N, 4.0357°E)
Time: 03:31:32
(UTC+00:00)

Cosmos 1513 Rocket - Pass Details

Date: 24 September 2020
Orbit: 939 x 1009 km, 82.9° (Epoch: 25 October)

Event Time Altitude Azimuth Distance (km) Brightness Sun altitude
Rises 18:31:58 0° 185° (S) 3,677 7.5 -10.6°
Reaches altitude 10° 18:34:30 10° 185° (S) 2,723 6.8 -11.1°
Maximum altitude 18:40:44 88° 98° (E) 974 4.5 -12.2°
Drops below altitude 10° 18:46:55 10° 9° (N) 2,693 6.9 -13.2°
Sets 18:49:24 0° 9° (N) 3,634 7.5 -13.7°
